JJA122 RKPC-RKSS

Flight info

Callsign JJA122
Flight time 0h 45m
Altitude 23000
Route KAMIT1W KAMIT Y722 OLMEN OLMEN2T
Aircraft B738/M-SDE2E3FGHIRWXY/LB1

Departure

Time 2026-05-04 06:45
Airport Jeju International Airport (RKPC)

Arrival

Time 2026-05-04 07:30
Airport Gimpo International Airport (RKSS)
Time Latitude Longitude Altitude Speed Heading
2026-05-04 06:27 33.50801 126.48988 127 ft 0 kts 329°
2026-05-04 06:42 33.50805 126.48985 126 ft 3 kts 329°
2026-05-04 06:42 33.50845 126.48955 126 ft 10 kts 329°
2026-05-04 06:42 33.50903 126.49003 126 ft 15 kts 63°
2026-05-04 06:44 33.51455 126.49706 126 ft 12 kts 241°
2026-05-04 06:44 33.51414 126.49624 126 ft 12 kts 239°
2026-05-04 06:44 33.51284 126.49373 127 ft 68 kts 237°
2026-05-04 06:45 33.50917 126.48659 127 ft 128 kts 239°
2026-05-04 06:45 33.50369 126.47598 295 ft 161 kts 241°
2026-05-04 06:45 33.49783 126.46494 966 ft 161 kts 242°
2026-05-04 06:45 33.49188 126.45338 1559 ft 170 kts 242°
2026-05-04 06:46 33.48551 126.44061 2093 ft 186 kts 243°
2026-05-04 06:46 33.48005 126.42625 2581 ft 201 kts 264°
2026-05-04 06:46 33.48312 126.40983 3143 ft 215 kts 304°
2026-05-04 06:46 33.49490 126.39825 3795 ft 232 kts 334°
2026-05-04 06:48 33.61550 126.44646 9614 ft 284 kts 19°
2026-05-04 06:48 33.63374 126.45557 10379 ft 289 kts 19°
2026-05-04 06:49 33.65282 126.46510 10863 ft 306 kts 19°
2026-05-04 06:50 33.81117 126.54524 14937 ft 380 kts 20°
2026-05-04 06:51 33.83555 126.55779 15658 ft 384 kts 20°
2026-05-04 06:51 33.86019 126.57027 16354 ft 387 kts 20°
2026-05-04 06:51 33.88509 126.58297 17033 ft 391 kts 20°
2026-05-04 06:51 33.91034 126.59561 17692 ft 395 kts 20°
2026-05-04 06:52 33.93566 126.60853 18351 ft 399 kts 20°
2026-05-04 06:52 33.96142 126.62184 18988 ft 403 kts 20°
2026-05-04 06:52 33.98714 126.63512 19602 ft 407 kts 20°
2026-05-04 06:52 34.01324 126.64845 20203 ft 411 kts 20°
2026-05-04 06:53 34.03967 126.66179 20793 ft 414 kts 20°
2026-05-04 06:53 34.06616 126.67518 21357 ft 418 kts 20°
2026-05-04 06:53 34.09321 126.68888 21921 ft 421 kts 20°
2026-05-04 06:53 34.12027 126.70261 22463 ft 425 kts 20°
2026-05-04 06:54 34.14752 126.71665 22962 ft 428 kts 20°
2026-05-04 06:54 34.17529 126.73114 23096 ft 432 kts 21°
2026-05-04 06:54 34.20278 126.74537 23095 ft 429 kts 20°
2026-05-04 06:54 34.23052 126.75839 23094 ft 427 kts 17°
2026-05-04 06:55 34.25865 126.76890 23095 ft 426 kts 11°
2026-05-04 06:55 34.28777 126.77578 23093 ft 424 kts
2026-05-04 06:55 34.31699 126.78031 23093 ft 423 kts
2026-05-04 06:55 34.34611 126.78362 23097 ft 422 kts
2026-05-04 06:56 34.37553 126.78619 23095 ft 422 kts
2026-05-04 06:57 34.58063 126.80619 23094 ft 423 kts
2026-05-04 06:58 34.60994 126.80943 23097 ft 423 kts
2026-05-04 06:58 34.63931 126.81266 23094 ft 422 kts
2026-05-04 06:58 34.66835 126.81586 23091 ft 422 kts
2026-05-04 06:58 34.69790 126.81909 23100 ft 423 kts
2026-05-04 06:59 34.72711 126.82203 23099 ft 422 kts
2026-05-04 06:59 34.75629 126.82493 23099 ft 422 kts
2026-05-04 06:59 34.78567 126.82789 23099 ft 422 kts
2026-05-04 06:59 34.81477 126.83099 23102 ft 423 kts
2026-05-04 07:01 35.02007 126.85320 23099 ft 422 kts
2026-05-04 07:01 35.04939 126.85640 23097 ft 422 kts
2026-05-04 07:02 35.07854 126.85951 23093 ft 423 kts
2026-05-04 07:02 35.10806 126.86256 23097 ft 422 kts
2026-05-04 07:02 35.13710 126.86552 23097 ft 422 kts
2026-05-04 07:02 35.16655 126.86868 23097 ft 423 kts
2026-05-04 07:03 35.19584 126.87184 23098 ft 423 kts
2026-05-04 07:03 35.22524 126.87505 23094 ft 423 kts
2026-05-04 07:03 35.25420 126.87825 23097 ft 422 kts
2026-05-04 07:03 35.28358 126.88142 23097 ft 422 kts
2026-05-04 07:04 35.31269 126.88459 23097 ft 421 kts
2026-05-04 07:04 35.34206 126.88773 23100 ft 421 kts
2026-05-04 07:04 35.37105 126.89091 23097 ft 421 kts
2026-05-04 07:04 35.40022 126.89403 23099 ft 421 kts
2026-05-04 07:05 35.42949 126.89745 23097 ft 421 kts
2026-05-04 07:05 35.45884 126.90074 23098 ft 421 kts
2026-05-04 07:05 35.48776 126.90408 23102 ft 421 kts
2026-05-04 07:05 35.51708 126.90741 23099 ft 421 kts
2026-05-04 07:06 35.57547 126.91384 23097 ft 421 kts
2026-05-04 07:06 35.60463 126.91738 23095 ft 421 kts
2026-05-04 07:06 35.63385 126.92084 23101 ft 421 kts
2026-05-04 07:07 35.66311 126.92396 23091 ft 421 kts
2026-05-04 07:08 35.86731 126.94591 23094 ft 421 kts
2026-05-04 07:09 35.89654 126.94895 23097 ft 421 kts
2026-05-04 07:09 35.92582 126.95091 23095 ft 420 kts
2026-05-04 07:09 35.95512 126.95226 23095 ft 420 kts 359°
2026-05-04 07:09 35.98441 126.95325 23094 ft 420 kts 359°
2026-05-04 07:10 36.01340 126.95431 23104 ft 420 kts 359°
2026-05-04 07:10 36.04275 126.95534 23094 ft 420 kts 359°
2026-05-04 07:12 36.24780 126.96552 23095 ft 420 kts
2026-05-04 07:12 36.27691 126.96736 23097 ft 420 kts
2026-05-04 07:12 36.30617 126.96889 23098 ft 420 kts 359°
2026-05-04 07:12 36.33536 126.97014 23092 ft 420 kts 359°
2026-05-04 07:13 36.36491 126.97182 23098 ft 420 kts
2026-05-04 07:13 36.39378 126.97340 23103 ft 420 kts 360°
2026-05-04 07:13 36.42294 126.97482 22931 ft 414 kts 360°
2026-05-04 07:14 36.53513 126.98065 21930 ft 400 kts
2026-05-04 07:14 36.56295 126.98225 21677 ft 398 kts 360°
2026-05-04 07:15 36.59032 126.98353 21380 ft 396 kts 360°
2026-05-04 07:15 36.61771 126.98492 20891 ft 391 kts 360°
2026-05-04 07:15 36.64488 126.98650 20315 ft 388 kts 360°
2026-05-04 07:15 36.67190 126.98785 19706 ft 386 kts 360°
2026-05-04 07:16 36.69833 126.98926 19099 ft 384 kts 360°
2026-05-04 07:16 36.72521 126.99131 18443 ft 384 kts
2026-05-04 07:16 36.75129 126.99582 17823 ft 384 kts
2026-05-04 07:16 36.77752 127.00315 17197 ft 383 kts 11°
2026-05-04 07:17 36.80306 127.01180 16577 ft 381 kts 13°
2026-05-04 07:17 36.82831 127.02093 15969 ft 380 kts 13°
2026-05-04 07:17 36.85354 127.03020 15359 ft 378 kts 13°
2026-05-04 07:17 36.87885 127.03934 14740 ft 378 kts 13°
2026-05-04 07:18 36.90393 127.04822 14129 ft 377 kts 13°
2026-05-04 07:18 36.92925 127.05708 13501 ft 374 kts 12°
2026-05-04 07:18 36.95399 127.06571 12889 ft 371 kts 12°
2026-05-04 07:18 36.97880 127.07432 12280 ft 368 kts 12°
2026-05-04 07:19 37.00344 127.08282 11670 ft 365 kts 12°
2026-05-04 07:19 37.02757 127.09113 11100 ft 358 kts 12°
2026-05-04 07:19 37.05125 127.09931 10772 ft 344 kts 12°
2026-05-04 07:19 37.07364 127.10710 10632 ft 330 kts 12°
2026-05-04 07:20 37.09534 127.11468 10505 ft 316 kts 12°
2026-05-04 07:20 37.11606 127.12189 10371 ft 303 kts 12°
2026-05-04 07:20 37.13612 127.12884 10210 ft 293 kts 11°
2026-05-04 07:20 37.15552 127.13557 9860 ft 290 kts 11°
2026-05-04 07:22 37.28014 127.13607 7363 ft 259 kts 312°
2026-05-04 07:22 37.29266 127.11981 6978 ft 259 kts 313°
2026-05-04 07:23 37.30541 127.10388 6604 ft 258 kts 314°
2026-05-04 07:23 37.31813 127.08820 6237 ft 256 kts 314°
2026-05-04 07:23 37.32909 127.07089 5866 ft 254 kts 296°
2026-05-04 07:23 37.33607 127.05071 5597 ft 248 kts 299°
2026-05-04 07:24 37.34736 127.03519 5481 ft 241 kts 325°
2026-05-04 07:24 37.36229 127.02555 5247 ft 245 kts 331°
2026-05-04 07:24 37.37660 127.01426 4883 ft 242 kts 319°
2026-05-04 07:24 37.38881 127.00008 4541 ft 238 kts 313°
2026-05-04 07:25 37.40025 126.98511 4200 ft 233 kts 313°
2026-05-04 07:26 37.46972 126.89861 2272 ft 156 kts 312°
2026-05-04 07:27 37.47721 126.88923 2030 ft 145 kts 312°
2026-05-04 07:27 37.48408 126.88072 1843 ft 136 kts 311°
2026-05-04 07:27 37.49079 126.87239 1656 ft 135 kts 310°
2026-05-04 07:27 37.49734 126.86403 1479 ft 135 kts 311°
2026-05-04 07:28 37.50403 126.85577 1297 ft 132 kts 311°
2026-05-04 07:28 37.51056 126.84771 1143 ft 132 kts 312°
2026-05-04 07:28 37.51716 126.83960 987 ft 130 kts 310°
2026-05-04 07:28 37.52375 126.83157 769 ft 133 kts 311°
2026-05-04 07:29 37.53030 126.82336 649 ft 131 kts 310°
2026-05-04 07:29 37.53669 126.81505 446 ft 132 kts 311°
2026-05-04 07:29 37.54339 126.80692 259 ft 132 kts 310°
2026-05-04 07:29 37.54981 126.79880 79 ft 130 kts 310°
2026-05-04 07:30 37.55554 126.79151 66 ft 94 kts 315°
2026-05-04 07:30 37.55897 126.78726 66 ft 59 kts 317°
2026-05-04 07:30 37.56188 126.78412 66 ft 51 kts 335°
2026-05-04 07:30 37.56395 126.78335 66 ft 16 kts 357°
2026-05-04 07:31 37.56491 126.78353 66 ft 6 kts 33°
2026-05-04 07:31 37.56499 126.78363 66 ft 0 kts 47°